WetterOnline ( https://www.wetteronline.de )

Wetter aktuell Malakoff

Aktuelles Wetter: Paris/Orly (90m)

6-stündlich | Neueste Meldungen
Ortszeit Temperatur Wetter
Fr, 12.07. 8:00 14.7° C Sprühregen
Fr, 12.07. 2:00 16.1° C starker Regen
Do, 11.07. 20:00 23.2° C bedeckt
Do, 11.07. 14:00 23.9° C wolkig
Do, 11.07. 8:00 18.4° C fast wolkenlos
Do, 11.07. 2:00 19.3° C bedeckt
Mi, 10.07. 20:00 24.6° C -
Mi, 10.07. 14:00 24.2° C wolkig
Ortszeit Temperatur Wetter
Fr, 12.07. 12:00 16.3° C bedeckt
Fr, 12.07. 11:00 14.9° C bedeckt
Fr, 12.07. 10:00 14.9° C Sprühregen
Fr, 12.07. 9:00 14.3° C Sprühregen
Fr, 12.07. 8:00 14.7° C Sprühregen
Fr, 12.07. 7:00 14.6° C bedeckt
Fr, 12.07. 6:00 14.8° C bedeckt
Ortszeit Relative Feuchte Sichtweite
Fr, 12.07. 8:00 92% 4.5 km
Fr, 12.07. 2:00 90% 3.4 km
Do, 11.07. 20:00 54% 40 km
Do, 11.07. 14:00 52% 25 km
Do, 11.07. 8:00 74% 25 km
Do, 11.07. 2:00 72% 40 km
Mi, 10.07. 20:00 47% 24 km
Mi, 10.07. 14:00 53% 30 km
Ortszeit Relative Feuchte Sichtweite
Fr, 12.07. 12:00 80% 19 km
Fr, 12.07. 11:00 86% 10 km
Fr, 12.07. 10:00 91% 10 km
Fr, 12.07. 9:00 94% 4.5 km
Fr, 12.07. 8:00 92% 4.5 km
Fr, 12.07. 7:00 90% 8 km
Fr, 12.07. 6:00 89% 16 km
Ortszeit Niederschlagsmenge Niederschlagsart
Fr, 12.07. 8:00 11 l/m2 in 12 Std. Sprühregen
Fr, 12.07. 2:00 9 l/m2 in 6 Std. -
Do, 11.07. 20:00 0.0 l/m2 in 12 Std. -
Do, 11.07. 14:00 0.0 l/m2 in 6 Std. -
Do, 11.07. 8:00 0.1 l/m2 in 12 Std. -
Do, 11.07. 2:00 0.1 l/m2 in 6 Std. -
Mi, 10.07. 20:00 0.0 l/m2 in 12 Std. -
Mi, 10.07. 14:00 0.0 l/m2 in 6 Std. -
Ortszeit Niederschlagsmenge Niederschlagsart
Fr, 12.07. 12:00 0.0 l/m2 in 1 Std. -
Fr, 12.07. 11:00 keine Meldung -
Fr, 12.07. 10:00 0.0 l/m2 in 1 Std. Regen
Fr, 12.07. 9:00 1.0 l/m2 in 1 Std. Regen
Fr, 12.07. 8:00 keine Meldung -
Fr, 12.07. 7:00 0.0 l/m2 in 1 Std. -
Fr, 12.07. 6:00 0.0 l/m2 in 1 Std. -
Ortszeit Stärke Spitze Richtung
km/h Bft. km/h Grad Sektor
Fr, 12.07. 8:00 19 3 33 320° NW
Fr, 12.07. 2:00 11 2 28 50° NO
Do, 11.07. 20:00 11 2 19 20° N
Do, 11.07. 14:00 6 1 17 300° NW
Do, 11.07. 8:00 13 3 28 340° N
Do, 11.07. 2:00 6 1 15 260° W
Mi, 10.07. 20:00 22 4 37 280° W
Mi, 10.07. 14:00 24 4 39 250° W
Ortszeit Stärke Spitze Richtung
km/h Bft. km/h Grad Sektor
Fr, 12.07. 12:00 15 3 24 320° NW
Fr, 12.07. 11:00 11 2 30 330° NW
Fr, 12.07. 10:00 15 3 31 340° N
Fr, 12.07. 9:00 11 2 28 330° NW
Fr, 12.07. 8:00 19 3 33 320° NW
Fr, 12.07. 7:00 11 2 28 340° N
Fr, 12.07. 6:00 13 3 24 360° N
Ortszeit Untergrenze Bedeckung Gattung
total tief tief mittel hoch
Fr, 12.07. 8:00 240 m 8/8 8/8 Cu - -
Fr, 12.07. 2:00 - 8/8 - - - -
Do, 11.07. 20:00 - 8/8 - - - -
Do, 11.07. 14:00 1290 m 7/8 3/8 Cu Ac -
Do, 11.07. 8:00 1200 m 1/8 1/8 Sc Ac -
Do, 11.07. 2:00 - 8/8 - - - -
Mi, 10.07. 20:00 - - - - - -
Mi, 10.07. 14:00 1200 m 5/8 5/8 Cu - -
Ortszeit Bedeckungsgrad in Achtel und Wolkenuntergrenze
Fr, 12.07. 12:00 8
Fr, 12.07. 11:00 2(360m) 4(480m) 7(1290m)
Fr, 12.07. 10:00 5(330m) 7(540m)
Fr, 12.07. 9:00 7(240m)
Fr, 12.07. 8:00 7(240m)
Fr, 12.07. 7:00 8
Fr, 12.07. 6:00 8
Ortszeit Luftdruck NN (hPa) Tendenz (hPa in 3 Std.)
Fr, 12.07. 8:00 1013 + 0,7
Fr, 12.07. 2:00 1013 - 1,1
Do, 11.07. 20:00 1015 - 1,1
Do, 11.07. 14:00 1018 - 0,7
Do, 11.07. 8:00 1019 + 0,5
Do, 11.07. 2:00 1018 + 0,2
Mi, 10.07. 20:00 1017 + 0,6
Mi, 10.07. 14:00 1017 - 0,7
Ortszeit Luftdruck NN (hPa) Tendenz (hPa in 3 Std.)
Fr, 12.07. 12:00 1015 + 0,8
Fr, 12.07. 11:00 1014 + 1,3
Fr, 12.07. 10:00 1014 + 1,3
Fr, 12.07. 9:00 1014 + 1,3
Fr, 12.07. 8:00 1013 + 0,7
Fr, 12.07. 7:00 1013 + 0,9
Fr, 12.07. 6:00 1013 - 0,2
Ortszeit Schneehöhe (cm)
Fr, 12.07. 8:00 -
Fr, 12.07. 2:00 0
Do, 11.07. 20:00 0
Do, 11.07. 14:00 -
Do, 11.07. 8:00 -
Do, 11.07. 2:00 0
Mi, 10.07. 20:00 0
Mi, 10.07. 14:00 -
Ortszeit Schneehöhe (cm)
Fr, 12.07. 12:00 -
Fr, 12.07. 11:00 -
Fr, 12.07. 10:00 -
Fr, 12.07. 9:00 -
Fr, 12.07. 8:00 -
Fr, 12.07. 7:00 -
Fr, 12.07. 6:00 -
Link zu dieser Seite / Seite empfehlen

Das Wetter in ...